Otisco, Minnesota
Current Conditions -  °F | °C
As of 9:15 PM on Thursday 18 Dec 2014 (Local Time) from KACQ Reporting Station
Overcast Overcast  
Wind Chill: 16°   Ceiling: 7500
Heat Index: 23°   Visibility: 7mi
Dew Point: 18°   Wind: 6mph
Humidity: 80%   Direction: 130°SE
Pressure: 30.25"   Gusts: NA
Location:  44.0806°N, 93.5062°W
Report Text: KACQ 190315Z AUTO 13005KT 7SM OVC075 M05/M08 A3025 RMK AO2
Loading
Personal Weather Stations






























Interactive Weather Map New forecast layout! Learn more

10-Day Weather Forecast

Advertisements
Track Severe Weather on mobile